OCN1902 EDDM-LICA

Flight info

Callsign OCN1902
Flight time 1h 34m
Altitude 37000
Route VAVOR3Q VAVOR M867 RADIZ DCT VEKEN DCT GIRDA DCT XAMIT DCT ERPOG DCT EVINO DCT ARBUM
Aircraft A320/M-SDE3FGHIRWY/LB1

Departure

Time 2026-05-01 08:40
Airport Munich Airport (EDDM)

Arrival

Time 2026-05-01 10:15
Airport Lamezia Terme Sant'Eufemia International Airport (LICA)
Time Latitude Longitude Altitude Speed Heading
2026-05-01 08:04 48.35729 11.79251 1467 ft 0 kts 263°
2026-05-01 08:21 48.35730 11.79262 1458 ft 4 kts 262°
2026-05-01 08:22 48.35736 11.79301 1460 ft 4 kts 251°
2026-05-01 08:22 48.35746 11.79338 1462 ft 4 kts 237°
2026-05-01 08:22 48.35763 11.79370 1460 ft 4 kts 220°
2026-05-01 08:22 48.35785 11.79390 1462 ft 4 kts 193°
2026-05-01 08:23 48.35801 11.79394 1460 ft 0 kts 173°
2026-05-01 08:26 48.35779 11.79398 1458 ft 5 kts 173°
2026-05-01 08:27 48.35727 11.79407 1467 ft 9 kts 173°
2026-05-01 08:27 48.35660 11.79419 1459 ft 12 kts 173°
2026-05-01 08:27 48.35568 11.79435 1464 ft 14 kts 173°
2026-05-01 08:27 48.35483 11.79451 1467 ft 11 kts 173°
2026-05-01 08:28 48.35405 11.79464 1467 ft 12 kts 174°
2026-05-01 08:28 48.35317 11.79478 1464 ft 13 kts 173°
2026-05-01 08:28 48.35219 11.79496 1465 ft 15 kts 173°
2026-05-01 08:28 48.35134 11.79511 1459 ft 11 kts 173°
2026-05-01 08:29 48.35061 11.79524 1463 ft 11 kts 173°
2026-05-01 08:29 48.35030 11.79530 1458 ft 0 kts 173°
2026-05-01 08:29 48.35029 11.79530 1459 ft 2 kts 173°
2026-05-01 08:29 48.35003 11.79534 1465 ft 6 kts 174°
2026-05-01 08:30 48.34948 11.79542 1464 ft 10 kts 174°
2026-05-01 08:30 48.34863 11.79557 1461 ft 14 kts 172°
2026-05-01 08:30 48.34786 11.79499 1466 ft 16 kts 257°
2026-05-01 08:30 48.34771 11.79326 1460 ft 16 kts 263°
2026-05-01 08:31 48.34759 11.79168 1467 ft 14 kts 264°
2026-05-01 08:31 48.34748 11.79026 1467 ft 13 kts 263°
2026-05-01 08:31 48.34738 11.78897 1457 ft 12 kts 264°
2026-05-01 08:31 48.34728 11.78763 1467 ft 15 kts 264°
2026-05-01 08:32 48.34714 11.78573 1467 ft 21 kts 263°
2026-05-01 08:32 48.34694 11.78326 1459 ft 25 kts 263°
2026-05-01 08:32 48.34674 11.78075 1466 ft 23 kts 263°
2026-05-01 08:32 48.34657 11.77844 1466 ft 21 kts 263°
2026-05-01 08:33 48.34641 11.77634 1466 ft 19 kts 264°
2026-05-01 08:33 48.34626 11.77441 1466 ft 18 kts 262°
2026-05-01 08:33 48.34611 11.77266 1464 ft 16 kts 263°
2026-05-01 08:33 48.34598 11.77088 1466 ft 20 kts 263°
2026-05-01 08:34 48.34580 11.76858 1458 ft 22 kts 263°
2026-05-01 08:34 48.34563 11.76635 1463 ft 21 kts 264°
2026-05-01 08:34 48.34549 11.76430 1462 ft 19 kts 263°
2026-05-01 08:34 48.34535 11.76243 1462 ft 17 kts 263°
2026-05-01 08:35 48.34522 11.76073 1457 ft 16 kts 263°
2026-05-01 08:35 48.34510 11.75918 1459 ft 15 kts 263°
2026-05-01 08:35 48.34498 11.75775 1466 ft 13 kts 263°
2026-05-01 08:35 48.34488 11.75645 1466 ft 13 kts 263°
2026-05-01 08:36 48.34474 11.75459 1466 ft 20 kts 263°
2026-05-01 08:36 48.34458 11.75277 1466 ft 14 kts 255°
2026-05-01 08:36 48.34384 11.75213 1462 ft 13 kts 175°
2026-05-01 08:36 48.34294 11.75229 1456 ft 14 kts 173°
2026-05-01 08:37 48.34192 11.75247 1461 ft 15 kts 173°
2026-05-01 08:37 48.34102 11.75265 1473 ft 8 kts 172°
2026-05-01 08:37 48.34084 11.75317 1470 ft 2 kts 86°
2026-05-01 08:37 48.34084 11.75320 1471 ft 0 kts 84°
2026-05-01 08:39 48.34085 11.75333 1465 ft 7 kts 84°
2026-05-01 08:39 48.34111 11.75688 1468 ft 69 kts 83°
2026-05-01 08:40 48.34265 11.77707 1475 ft 157 kts 85°
2026-05-01 08:40 48.34394 11.79391 2051 ft 164 kts 84°
2026-05-01 08:40 48.34516 11.81130 2788 ft 173 kts 85°
2026-05-01 08:41 48.34655 11.83036 3187 ft 194 kts 85°
2026-05-01 08:41 48.34813 11.85148 3589 ft 215 kts 86°
2026-05-01 08:41 48.34986 11.87435 4428 ft 223 kts 85°
2026-05-01 08:41 48.35168 11.89776 5406 ft 228 kts 85°
2026-05-01 08:42 48.35355 11.92167 6287 ft 232 kts 84°
2026-05-01 08:42 48.35360 11.94610 7137 ft 238 kts 104°
2026-05-01 08:42 48.34530 11.96769 7948 ft 246 kts 134°
2026-05-01 08:42 48.33180 11.98404 8826 ft 251 kts 139°
2026-05-01 08:43 48.31783 12.00023 9660 ft 256 kts 139°
2026-05-01 08:43 48.30332 12.01565 10467 ft 263 kts 148°
2026-05-01 08:43 48.28586 12.02524 11171 ft 276 kts 165°
2026-05-01 08:43 48.26587 12.02675 11577 ft 298 kts 180°
2026-05-01 08:44 48.24489 12.02521 12257 ft 304 kts 179°
2026-05-01 08:44 48.22354 12.02378 13018 ft 310 kts 179°
2026-05-01 08:44 48.20184 12.02242 13773 ft 314 kts 179°
2026-05-01 08:44 48.17986 12.02110 14463 ft 318 kts 179°
2026-05-01 08:45 48.15764 12.02069 15105 ft 320 kts 172°
2026-05-01 08:45 48.13575 12.02646 15761 ft 320 kts 159°
2026-05-01 08:45 48.11506 12.03854 16406 ft 320 kts 152°
2026-05-01 08:45 48.09455 12.05188 17079 ft 323 kts 152°
2026-05-01 08:46 48.07377 12.06530 17756 ft 326 kts 151°
2026-05-01 08:46 48.05280 12.07879 18430 ft 330 kts 151°
2026-05-01 08:46 48.03157 12.09240 19023 ft 333 kts 151°
2026-05-01 08:46 48.01015 12.10606 19580 ft 337 kts 151°
2026-05-01 08:47 47.98876 12.11967 20133 ft 340 kts 151°
2026-05-01 08:47 47.96685 12.13365 20683 ft 344 kts 151°
2026-05-01 08:47 47.94486 12.14803 21231 ft 345 kts 147°
2026-05-01 08:47 47.92449 12.16672 21654 ft 347 kts 137°
2026-05-01 08:48 47.90562 12.19021 21784 ft 361 kts 134°
2026-05-01 08:48 47.88615 12.21506 21920 ft 376 kts 134°
2026-05-01 08:48 47.86599 12.24068 22215 ft 385 kts 134°
2026-05-01 08:48 47.84540 12.26659 22660 ft 390 kts 134°
2026-05-01 08:49 47.82452 12.29270 23149 ft 393 kts 134°
2026-05-01 08:49 47.80346 12.31894 23635 ft 397 kts 134°
2026-05-01 08:49 47.78224 12.34540 24085 ft 400 kts 134°
2026-05-01 08:49 47.76083 12.37210 24476 ft 403 kts 134°
2026-05-01 08:50 47.73926 12.39898 24871 ft 406 kts 134°
2026-05-01 08:50 47.71749 12.42608 25260 ft 409 kts 134°
2026-05-01 08:50 47.69558 12.45331 25648 ft 412 kts 134°
2026-05-01 08:50 47.67350 12.48061 26034 ft 415 kts 134°
2026-05-01 08:51 47.65121 12.50806 26430 ft 418 kts 134°
2026-05-01 08:51 47.62867 12.53476 26810 ft 423 kts 139°
2026-05-01 08:51 47.60312 12.55761 27166 ft 431 kts 147°
2026-05-01 08:51 47.57671 12.57884 27509 ft 433 kts 146°
2026-05-01 08:52 47.55013 12.60021 27863 ft 436 kts 146°
2026-05-01 08:52 47.52331 12.62183 28211 ft 439 kts 146°
2026-05-01 08:52 47.49640 12.64356 28559 ft 442 kts 146°
2026-05-01 08:52 47.46927 12.66539 28884 ft 444 kts 146°
2026-05-01 08:53 47.44201 12.68725 29188 ft 447 kts 146°
2026-05-01 08:53 47.41490 12.70897 29530 ft 449 kts 146°
2026-05-01 08:53 47.38729 12.73112 29885 ft 452 kts 146°
2026-05-01 08:53 47.35957 12.75333 30183 ft 455 kts 146°
2026-05-01 08:54 47.33163 12.77569 30504 ft 457 kts 146°
2026-05-01 08:54 47.30356 12.79811 30768 ft 460 kts 146°
2026-05-01 08:54 47.27533 12.82062 31035 ft 462 kts 146°
2026-05-01 08:54 47.24697 12.84323 31280 ft 464 kts 146°
2026-05-01 08:55 47.21851 12.86587 31530 ft 467 kts 146°
2026-05-01 08:55 47.18986 12.88862 31793 ft 468 kts 146°
2026-05-01 08:55 47.16119 12.91135 32156 ft 468 kts 145°
2026-05-01 08:55 47.13259 12.93402 32563 ft 467 kts 145°
2026-05-01 08:56 47.10398 12.95667 32943 ft 466 kts 145°
2026-05-01 08:56 47.07545 12.97924 33303 ft 466 kts 145°
2026-05-01 08:56 47.04682 13.00188 33667 ft 466 kts 145°
2026-05-01 08:56 47.01826 13.02441 33991 ft 466 kts 145°
2026-05-01 08:57 46.98968 13.04689 34285 ft 467 kts 144°
2026-05-01 08:57 46.96107 13.06938 34558 ft 467 kts 144°
2026-05-01 08:57 46.93238 13.09193 34879 ft 466 kts 145°
2026-05-01 08:57 46.90418 13.11406 35243 ft 465 kts 145°
2026-05-01 08:58 46.87562 13.13644 35571 ft 464 kts 145°
2026-05-01 08:58 46.84717 13.15872 35901 ft 463 kts 145°
2026-05-01 08:58 46.81885 13.18090 36175 ft 463 kts 145°
2026-05-01 08:58 46.79041 13.20314 36408 ft 463 kts 145°
2026-05-01 08:59 46.76204 13.22530 36670 ft 462 kts 146°
2026-05-01 08:59 46.73363 13.24745 36927 ft 462 kts 146°
2026-05-01 08:59 46.70533 13.26949 37188 ft 462 kts 146°
2026-05-01 08:59 46.67691 13.29156 37340 ft 461 kts 146°
2026-05-01 09:00 46.62042 13.33529 37371 ft 459 kts 146°
2026-05-01 09:00 46.56403 13.37894 37374 ft 459 kts 146°
2026-05-01 09:01 46.50721 13.42080 37374 ft 461 kts 148°
2026-05-01 09:01 46.44919 13.46090 37375 ft 462 kts 148°
2026-05-01 09:02 46.39112 13.50110 37383 ft 461 kts 148°
2026-05-01 09:02 46.33338 13.54164 37389 ft 461 kts 148°
2026-05-01 09:03 46.27569 13.58231 37392 ft 461 kts 148°
2026-05-01 09:03 46.21799 13.62285 37389 ft 461 kts 148°
2026-05-01 09:04 46.16056 13.66292 37388 ft 461 kts 148°
2026-05-01 09:04 46.10276 13.70309 37387 ft 461 kts 148°
2026-05-01 09:05 46.04490 13.74328 37382 ft 462 kts 148°
2026-05-01 09:05 45.98698 13.78344 37389 ft 462 kts 148°
2026-05-01 09:06 45.92907 13.82356 37391 ft 462 kts 148°
2026-05-01 09:06 45.87104 13.86358 37391 ft 462 kts 148°
2026-05-01 09:07 45.81308 13.90351 37394 ft 462 kts 148°
2026-05-01 09:07 45.75498 13.94338 37394 ft 462 kts 148°
2026-05-01 09:08 45.69698 13.98315 37395 ft 462 kts 148°
2026-05-01 09:08 45.63893 14.02279 37393 ft 462 kts 148°
2026-05-01 09:09 45.58086 14.06230 37388 ft 462 kts 148°
2026-05-01 09:09 45.52279 14.10181 37380 ft 462 kts 148°
2026-05-01 09:10 45.46328 14.13742 37374 ft 470 kts 159°
2026-05-01 09:10 45.39924 14.15820 37375 ft 472 kts 162°
2026-05-01 09:11 45.33608 14.17815 37375 ft 472 kts 162°
2026-05-01 09:11 45.27187 14.19846 37374 ft 473 kts 162°
2026-05-01 09:12 45.20796 14.21875 37374 ft 474 kts 162°
2026-05-01 09:12 45.14356 14.23909 37361 ft 474 kts 163°
2026-05-01 09:13 45.07914 14.25932 37365 ft 474 kts 163°
2026-05-01 09:13 45.01469 14.27953 37362 ft 474 kts 163°
2026-05-01 09:14 44.95008 14.29971 37370 ft 474 kts 163°
2026-05-01 09:14 44.88559 14.31985 37370 ft 474 kts 164°
2026-05-01 09:15 44.82121 14.33998 37370 ft 473 kts 164°
2026-05-01 09:15 44.75732 14.35991 37369 ft 472 kts 164°
2026-05-01 09:16 44.69317 14.37982 37375 ft 472 kts 164°
2026-05-01 09:17 44.59705 14.40955 37371 ft 470 kts 165°
2026-05-01 09:17 44.50124 14.43902 37374 ft 469 kts 165°
2026-05-01 09:18 44.40567 14.46840 37363 ft 468 kts 165°
2026-05-01 09:19 44.31021 14.49766 37356 ft 468 kts 165°
2026-05-01 09:20 44.21504 14.52678 37349 ft 469 kts 165°
2026-05-01 09:21 44.08713 14.56560 37339 ft 470 kts 165°
2026-05-01 09:21 44.00180 14.59145 37333 ft 472 kts 166°
2026-05-01 09:22 43.87314 14.63024 37332 ft 473 kts 166°
2026-05-01 09:23 43.77645 14.65931 37327 ft 474 kts 166°
2026-05-01 09:24 43.68011 14.68820 37331 ft 474 kts 166°
2026-05-01 09:25 43.55124 14.72667 37339 ft 473 kts 166°
2026-05-01 09:26 43.45485 14.75548 37341 ft 472 kts 167°
2026-05-01 09:26 43.35863 14.78398 37338 ft 471 kts 167°
2026-05-01 09:27 43.26477 14.82072 37336 ft 469 kts 159°
2026-05-01 09:28 43.20337 14.85104 37332 ft 468 kts 159°
2026-05-01 09:28 43.14204 14.88118 37329 ft 468 kts 159°
2026-05-01 09:29 43.04993 14.92617 37320 ft 468 kts 159°
2026-05-01 09:30 42.95773 14.97105 37309 ft 469 kts 160°
2026-05-01 09:30 42.86539 15.01587 37302 ft 469 kts 160°
2026-05-01 09:31 42.80387 15.04572 37300 ft 469 kts 160°
2026-05-01 09:32 42.71196 15.09030 37296 ft 470 kts 160°
2026-05-01 09:32 42.61952 15.13479 37294 ft 470 kts 160°
2026-05-01 09:33 42.55785 15.16437 37296 ft 470 kts 161°
2026-05-01 09:34 42.46405 15.20192 37286 ft 468 kts 175°
2026-05-01 09:34 42.36663 15.20748 37281 ft 467 kts 179°
2026-05-01 09:35 42.26961 15.21179 37278 ft 467 kts 180°
2026-05-01 09:36 42.20467 15.21469 37275 ft 467 kts 180°
2026-05-01 09:36 42.13969 15.21759 37272 ft 467 kts 180°
2026-05-01 09:37 42.07464 15.22046 37269 ft 467 kts 180°
2026-05-01 09:37 41.97728 15.22481 37265 ft 467 kts 180°
2026-05-01 09:38 41.88020 15.22910 37264 ft 467 kts 180°
2026-05-01 09:39 41.78275 15.23334 37256 ft 467 kts 180°
2026-05-01 09:39 41.71783 15.23623 37255 ft 466 kts 181°
2026-05-01 09:40 41.62060 15.24042 37253 ft 466 kts 181°
2026-05-01 09:41 41.55587 15.24330 37257 ft 465 kts 181°
2026-05-01 09:41 41.45882 15.24758 37248 ft 464 kts 181°
2026-05-01 09:42 41.39420 15.25034 37247 ft 464 kts 181°
2026-05-01 09:43 41.26508 15.25582 37237 ft 464 kts 182°
2026-05-01 09:43 41.20048 15.25866 37232 ft 464 kts 182°
2026-05-01 09:44 41.10377 15.26279 37227 ft 463 kts 182°
2026-05-01 09:45 41.03926 15.26563 37224 ft 463 kts 182°
2026-05-01 09:45 40.94260 15.26984 37220 ft 463 kts 182°
2026-05-01 09:46 40.87866 15.27254 37218 ft 463 kts 183°
2026-05-01 09:46 40.81426 15.27527 37214 ft 462 kts 183°
2026-05-01 09:47 40.74995 15.27794 37213 ft 462 kts 183°
2026-05-01 09:47 40.68563 15.28068 37205 ft 462 kts 183°
2026-05-01 09:48 40.62138 15.28346 37202 ft 462 kts 184°
2026-05-01 09:48 40.55708 15.28618 37199 ft 462 kts 184°
2026-05-01 09:49 40.49275 15.28886 37193 ft 462 kts 184°
2026-05-01 09:49 40.42846 15.29156 37186 ft 462 kts 184°
2026-05-01 09:50 40.36412 15.29423 37182 ft 463 kts 184°
2026-05-01 09:50 40.33185 15.29561 37030 ft 464 kts 184°
2026-05-01 09:50 40.29962 15.29698 36772 ft 464 kts 184°
2026-05-01 09:51 40.26728 15.29833 36512 ft 464 kts 185°
2026-05-01 09:51 40.23493 15.29965 36264 ft 464 kts 185°
2026-05-01 09:51 40.20264 15.30099 36024 ft 464 kts 185°
2026-05-01 09:51 40.17080 15.30234 35773 ft 462 kts 185°
2026-05-01 09:52 40.13861 15.30366 35524 ft 461 kts 185°
2026-05-01 09:52 40.10658 15.30496 35280 ft 459 kts 185°
2026-05-01 09:52 40.07471 15.30629 35036 ft 457 kts 185°
2026-05-01 09:52 40.04301 15.30764 34795 ft 454 kts 186°
2026-05-01 09:53 40.01148 15.30898 34555 ft 452 kts 186°
2026-05-01 09:53 39.98015 15.31032 34318 ft 449 kts 186°
2026-05-01 09:53 39.94895 15.31167 34065 ft 447 kts 186°
2026-05-01 09:53 39.91793 15.31302 33781 ft 445 kts 186°
2026-05-01 09:54 39.88710 15.31431 33508 ft 442 kts 187°
2026-05-01 09:54 39.85638 15.31559 33233 ft 440 kts 187°
2026-05-01 09:54 39.82575 15.31688 32958 ft 438 kts 187°
2026-05-01 09:54 39.79530 15.31812 32705 ft 437 kts 187°
2026-05-01 09:55 39.76506 15.31950 32330 ft 435 kts 185°
2026-05-01 09:55 39.73478 15.32576 31810 ft 446 kts 174°
2026-05-01 09:55 39.70517 15.33964 31300 ft 457 kts 161°
2026-05-01 09:55 39.67805 15.36086 30787 ft 466 kts 148°
2026-05-01 09:56 39.65315 15.38813 30259 ft 469 kts 144°
2026-05-01 09:56 39.62852 15.41585 29702 ft 466 kts 144°
2026-05-01 09:56 39.60407 15.44321 29206 ft 462 kts 145°
2026-05-01 09:56 39.57972 15.47025 28730 ft 458 kts 145°
2026-05-01 09:57 39.55558 15.49691 28239 ft 454 kts 145°
2026-05-01 09:57 39.53160 15.52338 27748 ft 451 kts 145°
2026-05-01 09:57 39.50779 15.54969 27262 ft 448 kts 145°
2026-05-01 09:57 39.48418 15.57580 26768 ft 445 kts 144°
2026-05-01 09:58 39.46069 15.60176 26274 ft 443 kts 144°
2026-05-01 09:58 39.43729 15.62767 25766 ft 441 kts 144°
2026-05-01 09:58 39.41400 15.65346 25247 ft 440 kts 144°
2026-05-01 09:58 39.39079 15.67912 24714 ft 439 kts 144°
2026-05-01 09:59 39.36752 15.70482 24177 ft 438 kts 144°
2026-05-01 09:59 39.34433 15.73036 23623 ft 438 kts 144°
2026-05-01 09:59 39.32122 15.75577 23121 ft 433 kts 144°
2026-05-01 09:59 39.29835 15.78089 22584 ft 431 kts 144°
2026-05-01 10:00 39.27568 15.80581 22226 ft 424 kts 144°
2026-05-01 10:00 39.25326 15.83040 21737 ft 421 kts 144°
2026-05-01 10:00 39.23129 15.85441 21330 ft 416 kts 143°
2026-05-01 10:00 39.20922 15.87844 20859 ft 414 kts 143°
2026-05-01 10:01 39.19458 15.89478 20572 ft 412 kts 141°
2026-05-01 10:01 39.16709 15.92816 20025 ft 408 kts 138°
2026-05-01 10:01 39.14717 15.95402 19642 ft 404 kts 137°
2026-05-01 10:01 39.12771 15.97986 19201 ft 398 kts 136°
2026-05-01 10:02 39.11477 15.99710 18723 ft 394 kts 136°
2026-05-01 10:02 39.09579 16.02214 18049 ft 387 kts 136°
2026-05-01 10:02 39.07722 16.04625 17647 ft 371 kts 137°
2026-05-01 10:02 39.05931 16.06921 17255 ft 357 kts 137°
2026-05-01 10:03 39.04188 16.09138 16884 ft 349 kts 137°
2026-05-01 10:03 39.02456 16.11334 16498 ft 349 kts 137°
2026-05-01 10:03 39.00720 16.13530 16125 ft 350 kts 137°
2026-05-01 10:03 38.99009 16.15698 15758 ft 350 kts 137°
2026-05-01 10:04 38.97274 16.17895 15381 ft 350 kts 137°
2026-05-01 10:04 38.95544 16.20087 15000 ft 348 kts 137°
2026-05-01 10:04 38.93813 16.22277 14624 ft 348 kts 137°
2026-05-01 10:04 38.92088 16.24463 14248 ft 348 kts 136°
2026-05-01 10:05 38.90463 16.26766 13857 ft 349 kts 126°
2026-05-01 10:05 38.89212 16.29424 13451 ft 347 kts 118°
2026-05-01 10:05 38.88057 16.32138 13068 ft 346 kts 118°
2026-05-01 10:05 38.86899 16.34837 12678 ft 344 kts 118°
2026-05-01 10:06 38.85741 16.37523 12283 ft 343 kts 119°
2026-05-01 10:06 38.84584 16.40199 11878 ft 342 kts 119°
2026-05-01 10:06 38.83445 16.42830 11472 ft 341 kts 118°
2026-05-01 10:06 38.82295 16.45489 11071 ft 339 kts 119°
2026-05-01 10:07 38.81152 16.48128 10657 ft 338 kts 119°
2026-05-01 10:07 38.80012 16.50757 10275 ft 336 kts 119°
2026-05-01 10:07 38.78940 16.53373 9957 ft 324 kts 111°
2026-05-01 10:07 38.78326 16.56071 9541 ft 310 kts 97°
2026-05-01 10:08 38.77976 16.61308 8776 ft 281 kts 75°
2026-05-01 10:08 38.78750 16.63505 8390 ft 266 kts 46°
2026-05-01 10:08 38.80143 16.64957 8009 ft 255 kts 21°
2026-05-01 10:09 38.81826 16.65533 7633 ft 249 kts
2026-05-01 10:09 38.83527 16.65356 7260 ft 245 kts 339°
2026-05-01 10:09 38.84976 16.64266 6889 ft 242 kts 314°
2026-05-01 10:09 38.85911 16.62488 6513 ft 243 kts 290°
2026-05-01 10:10 38.86260 16.60377 6127 ft 242 kts 279°
2026-05-01 10:10 38.86514 16.58215 5551 ft 250 kts 279°
2026-05-01 10:10 38.87061 16.53625 4353 ft 266 kts 279°
2026-05-01 10:11 38.87341 16.51283 3976 ft 264 kts 279°
2026-05-01 10:11 38.87616 16.48979 3609 ft 256 kts 279°
2026-05-01 10:11 38.87876 16.46799 3288 ft 238 kts 279°
2026-05-01 10:11 38.88118 16.44758 2976 ft 226 kts 279°
2026-05-01 10:12 38.88350 16.42809 2695 ft 216 kts 280°
2026-05-01 10:12 38.88573 16.40931 2398 ft 210 kts 279°
2026-05-01 10:12 38.88991 16.37397 1879 ft 190 kts 281°
2026-05-01 10:13 38.89183 16.35766 1630 ft 178 kts 282°
2026-05-01 10:13 38.89359 16.34237 1336 ft 169 kts 281°
2026-05-01 10:13 38.89529 16.32792 1139 ft 158 kts 281°
2026-05-01 10:14 38.89852 16.30153 793 ft 145 kts 279°
2026-05-01 10:14 38.89993 16.28893 577 ft 142 kts 280°
2026-05-01 10:14 38.90141 16.27647 353 ft 139 kts 277°
2026-05-01 10:14 38.90284 16.26411 149 ft 139 kts 277°
2026-05-01 10:15 38.90421 16.25223 50 ft 125 kts 277°
2026-05-01 10:15 38.90525 16.24309 37 ft 79 kts 278°
2026-05-01 10:15 38.90588 16.23825 35 ft 35 kts 279°
2026-05-01 10:15 38.90665 16.23596 35 ft 25 kts 308°
2026-05-01 10:16 38.90745 16.23489 33 ft 14 kts 332°
2026-05-01 10:16 38.90829 16.23521 33 ft 13 kts 54°
2026-05-01 10:16 38.90823 16.23721 34 ft 11 kts 98°
2026-05-01 10:17 38.90812 16.23812 35 ft 11 kts 98°
2026-05-01 10:17 38.90783 16.24079 37 ft 15 kts 98°
2026-05-01 10:17 38.90798 16.24190 38 ft 12 kts 57°
2026-05-01 10:18 38.90820 16.24370 39 ft 9 kts 99°
2026-05-01 10:18 38.90830 16.24428 38 ft 6 kts 37°
2026-05-01 10:18 38.90866 16.24441 40 ft 5 kts 17°
2026-05-01 10:19 38.90877 16.24453 38 ft 0 kts 49°